Regional Weather Roundup
Issued by NWS

Home | Current Version | Previous Version | Graphics & Text | Print | Product List | Glossary On
Versions: 1 2 3 4 5 6 7 8 9 10 11 12 13 14 15 16 17 18 19 20 21 22 23 24 25 26 27 28 29 30 31 32 33 34 35 36 37 38 39 40 41 42 43 44 45 46 47 48 49 50
283
ASUS44 KMEG 222200
RWRTN
TENNESSEE HOURLY STATE WEATHER ROUNDUP
NATIONAL WEATHER SERVICE MEMPHIS TN
400 PM CST SUN JAN 22 2017

TNZ002-004-019-021-049-052-054-088>092-222300-
WEST TENNESSEE

CITY           SKY/WX    TMP DP  RH WIND       PRES   REMARKS
MEMPHIS INTL   LGT RAIN  54  51  90 W8        29.32R
NWS MEMPHIS      N/A     54 N/A N/A MISG        N/A
JACKSON        LGT RAIN  57  56  96 N8        29.31R FOG
DYERSBURG      PTSUNNY   55  54  94 N3        29.33R
UNION CITY     CLOUDY    61  61 100 NE6       29.32R
PARIS          CLOUDY    57  50  77 CALM      29.32S
$$

TNZ008-025-027-028-033-062-065-066-222300-
NORTH MIDDLE TENNESSEE

CITY           SKY/WX    TMP DP  RH WIND       PRES   REMARKS
NASHVILLE      CLOUDY    64  51  62 E5        29.29F
CLARKSVILLE    CLOUDY    63  50  62 NE9       29.31R
SMYRNA         CLOUDY    64  52  64 NE9       29.30S
CROSSVILLE     CLOUDY    58  51  78 NE9       29.32F
$$

TNZ061-075-076-078-094-096-097-222300-
SOUTH MIDDLE TENNESSEE

CITY           SKY/WX    TMP DP  RH WIND       PRES   REMARKS
TULLAHOMA      PTSUNNY   57  54  88 NE8       29.27F
WINCHESTER     CLOUDY    59  55  88 CALM      29.25F
COLUMBIA       CLOUDY    61  61 100 N3        29.26F
SHELBYVILLE    CLOUDY    61  55  82 N5        29.27F
$$

TNZ017-018-042-046-047-222300-
NORTHEAST TENNESSEE

CITY           SKY/WX    TMP DP  RH WIND       PRES   REMARKS
TRI CITIES     CLOUDY    62  48  60 SE7       29.40F
$$

TNZ012-013-036-069-073-074-222300-
CENTRAL EAST TENNESSEE

CITY           SKY/WX    TMP DP  RH WIND       PRES   REMARKS
KNOXVILLE      CLOUDY    62  54  74 NE10      29.30F
OAK RIDGE      CLOUDY    63  53  70 NE6       29.33F
GATLINBURG     MOCLDY    63  52  67 NE7       29.32F
$$

TNZ083-085-099-222300-
SOUTHEAST TENNESSEE

CITY           SKY/WX    TMP DP  RH WIND       PRES   REMARKS
CHATTANOOGA    LGT RAIN  61  56  83 N9        29.24F
$$

SKY/WX REPORTED AS FAIR MEANS FEW OR NO CLOUDS BELOW
12 THOUSAND FEET.





USA.gov is the U.S. government's official web portal to all federal, state and local government web resources and services.